Calgary Springbank,

9:21 AM MDT on May 23, 2017 (GMT -0600)
Calgary Springbank

Weather History for CYBW - November, 2010

Change the Weather History Date:

Thursday, November 18, 2010

  Actual Average Record
Temperature  
Mean Temperature -2 °F -  
Max Temperature 5 °F 30 °F 51 °F (2005)
Min Temperature -9 °F 10 °F -13 °F (1996)
Degree Days  
Heating Degree Days 67    
Moisture  
Dew Point -4 °F    
Average Humidity 80    
Maximum Humidity 92    
Minimum Humidity 67    
Precipitation  
Precipitation 0.08 in - - ()
Sea Level Pressure  
Sea Level Pressure 30.09 in    
Wind  
Wind Speed 8 mph ()    
Max Wind Speed 16 mph    
Max Gust Speed 17 mph    
Visibility 7.1 miles    
Events Snow    
Averages and records for this station are not official NWS values.
T = Trace of Precipitation, MM = Missing Value Source: Averaged Metar Reports

Daily Weather History Graph

Daily Weather History Graph

Search for Another Location

Airport or City:

Trip Planner

Search our weather history database for the weather conditions in past years. The results will help you decide how hot, cold, wet, or windy it might be!

Date:

Astronomy

Nov. 18, 2010 Rise Set
Actual Time 7:59 AM MST 4:45 PM MST
Civil Twilight 7:22 AM MST 5:22 PM MST
Nautical Twilight 6:41 AM MST 6:03 PM MST
Astronomical Twilight 6:02 AM MST 6:42 PM MST
Moon 2:57 PM MST (11/18) 4:47 AM MST (11/18)
Length of Visible Light 10h 00m
Length of Day
8h 46m
Waxing Gibbous, 91% of the Moon is Illuminated
Nov 18
Waxing Gibbous
Nov 21
Full
Nov 28
Last Quarter
Dec 5
New
Dec 13
First Quarter

Hourly Weather History & Observations

Time (MST) Temp. Windchill Dew Point Humidity Pressure Visibility Wind Dir Wind Speed Gust Speed Precip Events Conditions
5:00 AM 5 °F - 3 °F 87% 30.02 in 1 mi North 8.1 mph - - Snow Light Snow
5:00 AM 5.0 °F -6.9 °F 3.2 °F 92% 30.02 in 1.0 mi NNW 6.9 mph - N/A Snow Light Snow
6:00 AM 5.0 °F -9.1 °F 1.4 °F 85% 30.00 in 1.2 mi North 9.2 mph - N/A Snow Light Snow
7:00 AM 3.2 °F -13.1 °F -0.4 °F 85% 30.01 in 0.8 mi North 11.5 mph - N/A Snow Light Snow
7:26 AM - - - N/A% - 0.6 mi NNW 9.2 mph - N/A   Unknown
8:00 AM 3.2 °F -12.2 °F -0.4 °F 85% 30.02 in 1.0 mi NNW 10.4 mph - N/A Snow Light Snow
9:00 AM 3.2 °F -13.1 °F -0.4 °F 85% 30.05 in 1.0 mi NNW 11.5 mph - N/A Snow Light Snow
9:46 AM - - - N/A% - 2.2 mi NNW 15.0 mph - N/A   Unknown
10:00 AM 3.2 °F -13.1 °F -0.4 °F 85% 30.05 in 3.0 mi NNW 11.5 mph - N/A Snow Light Snow
10:49 AM - - - N/A% - 5.0 mi North 15.0 mph - N/A   Unknown
11:00 AM 3 °F - -1 °F 73% 30.08 in 6 mi North 12.7 mph - - Snow Light Snow
11:00 AM 3.2 °F -13.1 °F -2.2 °F 78% 30.08 in 6.0 mi North 11.5 mph 17.3 mph N/A Snow Light Snow
11:34 AM - - - N/A% - 15.0 mi North 16.1 mph - N/A   Unknown
12:00 PM 3.2 °F -14.6 °F -2.2 °F 78% 30.09 in 8.0 mi NNW 13.8 mph - N/A Snow Light Snow
1:00 PM 3.2 °F -13.9 °F -2.2 °F 78% 30.09 in 4.0 mi North 12.7 mph - N/A Snow Light Snow
1:50 PM - - - N/A% - 7.0 mi North 12.7 mph - N/A   Mostly Cloudy
2:00 PM 5.0 °F -11.6 °F 1.4 °F 85% 30.11 in 7.0 mi North 12.7 mph - N/A   Mostly Cloudy
3:00 PM 1.4 °F -16.9 °F -2.2 °F 85% 30.12 in 15.0 mi North 13.8 mph - N/A   Mostly Cloudy
4:00 PM -2.2 °F -18.0 °F -7.6 °F 78% 30.14 in 15.0 mi North 9.2 mph - N/A   Mostly Cloudy
5:00 PM -0 °F - -5 °F 67% 30.18 in 15 mi NNW 2.3 mph - -   Clear
5:00 PM -0.4 °F -8.3 °F -5.8 °F 78% 30.18 in 15.0 mi North 3.5 mph - N/A   Mostly Cloudy
6:00 PM -7.6 °F -16.5 °F -13.0 °F 77% 30.19 in 15.0 mi WNW 3.5 mph - N/A   Mostly Cloudy
7:00 PM -9.4 °F - -14.8 °F 77% 30.19 in 10.0 mi Calm Calm - N/A   Mostly Cloudy
8:00 PM -5.8 °F - -11.2 °F 77% 30.21 in 10.0 mi Calm Calm - N/A   Mostly Cloudy
9:00 PM -5.8 °F - -13.0 °F 71% 30.22 in 10.0 mi Calm Calm - N/A   Mostly Cloudy
10:00 PM -4.0 °F - -11.2 °F 71% 29.90 in 10.0 mi Calm Calm - N/A   Mostly Cloudy